Flag for South Africa Weather past 2 weeks in Stellenbosch, South Africa

Now
61 °F

Passing clouds.


Feels Like: 61 °F
Forecast: 41 / 69 °F
Wind: 16 mph from South

Location: Cape Town International Airport

Current Time: Aug 23, 2014 at 2:30:55 PM

Latest Report: Aug 23, 2014 at 1:00 PM


Visibility: N/A

Pressure: 30.21 "Hg

Humidity: 55%

Dew point: 45 °F

Location of StellenboschLocation

Historic Weather in Stellenbosch — Graph

°F

Stellenbosch temperature yesterday

Maximum temperature yesterday: 63 °F (at 12:00 PM)
Minimum temperature yesterday: 50 °F (at 8:00 AM)
Average temperature yesterday: 55 °F

Past Weeks' High & Low Weather Summary

 TemperatureHumidityPressure
High84 °F (Aug 17, 1:00 PM)94% (Aug 8, 9:00 PM)30.42 "Hg (Aug 8, 9:00 PM)
Low45 °F (Aug 23, 7:00 AM)31% (Aug 17, 1:00 PM)29.80 "Hg (Aug 17, 11:00 PM)
Average59 °F77%30.09 "Hg
* Reported Aug 8 1:00 PM — Aug 23 1:00 PM, Stellenbosch, Weather by CustomWeather, © 2014

Note: Actual official high and low records may vary slightly from our data, if they occured in-between our weather recording intervals... More about our weather records

Advertising

Stellenbosch weather history for previous 24 hours

 ConditionsComfort  
Time TempWeatherWind HumidityBarometerVisibility
1:00 PM
Aug 23
61 °FPassing clouds.16 mph55%30.21 "HgN/A
12:00 PM61 °FPassing clouds.10 mph48%30.21 "HgN/A
11:00 AM61 °FSunny.13 mph48%30.21 "Hg10 mi
9:00 AM54 °FPassing clouds.7 mph72%30.24 "HgN/A
8:00 AM46 °FPassing clouds.6 mph82%30.21 "HgN/A
7:00 AM45 °FPassing clouds.3 mph81%30.21 "HgN/A
6:00 AM46 °FPassing clouds.5 mph76%30.18 "HgN/A
5:00 AM48 °FPassing clouds.2 mph76%30.18 "HgN/A
4:00 AM48 °FPassing clouds.3 mph82%30.18 "HgN/A
2:00 AM46 °FPassing clouds.3 mph82%30.21 "HgN/A
1:00 AM48 °FPassing clouds.5 mph82%30.21 "HgN/A
11:00 PM
Aug 22
54 °FPassing clouds.8 mph67%30.24 "HgN/A
10:00 PM52 °FClear.5 mph77%30.24 "Hg10 mi
9:00 PM50 °FClear.3 mph82%30.24 "Hg10 mi
8:00 PM52 °FClear.5 mph77%30.24 "Hg10 mi
7:00 PM50 °FClear.7 mph76%30.21 "Hg10 mi
6:00 PM57 °FPassing clouds.8 mph63%30.21 "HgN/A
5:00 PM61 °FPassing clouds.8 mph59%30.21 "HgN/A
4:00 PM61 °FPartly sunny.8 mph55%30.21 "HgN/A
3:00 PM63 °FScattered clouds.8 mph56%30.21 "HgN/A
2:00 PM61 °FPartly sunny.6 mph59%30.21 "HgN/A
Weather by CustomWeather, © 2014

See weather overviewHow to use our weather pages